TimeCST,TemperatureF,Dew PointF,Humidity,Sea Level PressureIn,VisibilityMPH,Wind Direction,Wind SpeedMPH,Gust SpeedMPH,PrecipitationIn,Events,Conditions,WindDirDegrees,DateUTC
12:56 AM,3.0,-6.9,63,30.23,10.0,Calm,Calm,-,N/A,,Clear,0,2013-02-20 06:56:00
1:56 AM,3.0,-6.9,63,30.26,10.0,Calm,Calm,-,N/A,,Clear,0,2013-02-20 07:56:00
2:56 AM,2.1,-6.9,66,30.28,10.0,Calm,Calm,-,N/A,,Clear,0,2013-02-20 08:56:00
3:56 AM,1.0,-6.9,69,30.31,10.0,Calm,Calm,-,N/A,,Clear,0,2013-02-20 09:56:00
4:56 AM,1.0,-6.9,69,30.32,10.0,Calm,Calm,-,N/A,,Clear,0,2013-02-20 10:56:00
5:56 AM,1.0,-6.0,72,30.33,10.0,Calm,Calm,-,N/A,,Clear,0,2013-02-20 11:56:00
6:56 AM,1.0,-6.0,72,30.35,10.0,Calm,Calm,-,N/A,,Clear,0,2013-02-20 12:56:00
7:56 AM,3.0,-4.9,70,30.35,10.0,Calm,Calm,-,N/A,,Clear,0,2013-02-20 13:56:00
8:56 AM,7.2,-1.8,67,30.35,10.0,Calm,Calm,-,N/A,,Clear,0,2013-02-20 14:56:00
9:56 AM,11.1,1.0,64,30.36,10.0,Calm,Calm,-,N/A,,Clear,0,2013-02-20 15:56:00
10:56 AM,14.0,2.1,59,30.37,10.0,Calm,Calm,-,N/A,,Clear,0,2013-02-20 16:56:00
11:56 AM,18.1,4.1,54,30.37,10.0,Calm,Calm,-,N/A,,Clear,0,2013-02-20 17:56:00
12:56 PM,20.1,5.0,52,30.35,10.0,Calm,Calm,-,N/A,,Clear,0,2013-02-20 18:56:00
1:56 PM,21.0,6.1,53,30.36,10.0,Calm,Calm,-,N/A,,Clear,0,2013-02-20 19:56:00
2:56 PM,22.1,5.0,48,30.39,10.0,Calm,Calm,-,N/A,,Clear,0,2013-02-20 20:56:00
3:56 PM,22.1,5.0,48,30.38,10.0,Calm,Calm,-,N/A,,Clear,0,2013-02-20 21:56:00
4:56 PM,21.0,4.1,48,30.40,10.0,Calm,Calm,-,N/A,,Clear,0,2013-02-20 22:56:00
5:56 PM,19.0,4.1,52,30.40,10.0,Calm,Calm,-,N/A,,Clear,0,2013-02-20 23:56:00
6:56 PM,17.1,4.1,57,30.40,10.0,Calm,Calm,-,N/A,,Clear,0,2013-02-21 00:56:00
7:56 PM,16.2,4.1,59,30.39,10.0,Calm,Calm,-,N/A,,Clear,0,2013-02-21 01:56:00
8:56 PM,14.0,3.0,62,30.39,10.0,Calm,Calm,-,N/A,,Clear,0,2013-02-21 02:56:00
9:56 PM,14.0,2.1,59,30.39,10.0,Calm,Calm,-,N/A,,Clear,0,2013-02-21 03:56:00
10:56 PM,13.1,2.1,62,30.42,10.0,Calm,Calm,-,N/A,,Clear,0,2013-02-21 04:56:00
11:56 PM,10.0,1.0,67,30.44,10.0,Calm,Calm,-,N/A,,Clear,0,2013-02-21 05:56:00